Race Results for
cherry-roubaix criterium and road race
Traverse City, MI
(Event Information)
Road Race on 08/29/2010

Note: Ranking points are NOT upgrade points. An explanation of ranking points can be found here.


Men - CAT 5

 Place Points NameCity, StateTime USAC #BibTeam
1 Jacob Ellis   Traverse City, MI1:54:52.70 316946  502 Mclain
2 Christopher Vitton   Rockford, MI1:54:53.40 302801  1864 Rapid Wheelmen
3 Jacob Kloss   Plainwell, MI1:54:53.60 313412  1854 
4 Jesse Riegle   Richland, MI1:54:54.10 315126  1859 KBC Racing
5 Wes Sovis   1:55:00.20  1861 Jenks Boneyard
6 Ben McMurray   1:55:01.40  1857 
7 Mikael Kilpela   Marquette, MI1:55:06.00 325540  505 KMK Cycling
8 Nicholas Brown   Commerce Township, MI1:55:38.70 315576  500 n/a
9 Cody Sovis   1:56:07.50  1860 Jenks Boneyard
10 Aaron Zuelke   Nunica, MI1:57:18.20 165723  1869 West Michigan Coast Riders
11 Harrison Vogel   2:03:49.80  1866 Seduced Gentlemen
12 John Paul   2:08:34.70  506 N/A
13 Ryan Hartwell   Saint Joseph, MI2:09:38.50 296639  503 
14 Don Kring   2:09:54.20  1856 
15 Drew Koschmann   2:12:07.50  1855 
16 Brad Waddell   Canton, MI2:12:40.50 325960  1867 
17 Nicholas Vogel   2:14:41.10  1865 Seduced Gentlemen
18 Jesse Tien   2:16:53.50  1863 unattached
19 Joel Bush   Grand Rapids, MI2:17:39.30 321060  1851 None
20 Andrew Wisniewski   South Lyon, MI2:22:08.60 310167  507 Blood/ Sweat/ and Gears
DNF Matt Cook   Eastgrand Rapids, MI 311298  501 Foster Swift / Grand Rapids Bic
DNF Enrique Jackson   Garden City, MI 257101  504 Ann Arbor Velo Club
DNF Eric Kolden     511 
DNF Kent McNeil     1858 Team McLain
DNF Eric Wickenheiser     1868 
DNF Jonathan Hatfield     1873 

Men - CAT 5 - 35-99

 Place Points NameCity, StateTime USAC #BibTeam
1 Craig Newell   Williamston Mi1:54:36.40 308443  574 Unattached
2 Steve Smigiel   1:55:40.60  1870 
3 Rick Schultz   1:56:07.90  579 none
4 Tom Bultman   Hamilton , MI1:58:13.30 352936  556 Team Jade/Whisper
5 Jeff Zeller   1:58:41.30  586 
6 Paul Guerreso   Florence, SC1:59:05.00 298251  564 
7 Spencer Mendel   1:59:16.30  571 pedal cranker
8 Scott Baumann   Grand Rapids, MI1:59:16.60 322512  552 Rapid Wheelmen
9 Craig Van Ess   Grand Rapids, MI1:59:19.50 296338  584 Grand Rapids Bicycle Company
10 David Bucholtz   1:59:37.90  550 Brickwheels
11 Neil Peruski   Oxford, MI1:59:44.50 317926  575 MPI/Mainstreet Bicycles
12 Tim Polack   1:59:51.50  576 
13 John Buursma   Tacoma, WA1:59:58.10 309271  557 
14 jeff doerr   2:09.40  1872 
15 Rick Bielewicz   2:26.90  554 NA
16 Ron Sanborn   2:02:25.00  578 
17 Ken Lown   2:07:19.40  569 
18 Stephen Ebert   2:08:25.50  1871 
19 mike senters   2:11:17.20  580 Lisa/ Luke/ Gabby
20 Jimmy Argyle   Traverse City, MI2:11:22.30 355864  549 
21 TOM KARCH   2:11:25.20  567 Kinetic Seniors
22 keith davis   2:16:05.00  561 
23 Joe Sovis   2:21:47.70  582 Jenks Boneyard
24 Charles Gann   2:22:13.10  563 
25 Brian Bee   2:22:13.50  553 NA
26 Jeffrey Carlson   2:23:40.40  558 Gios Torino
27 craig dittmer   2:23:48.50  562 RACING GREYHOUNDS
28 Nickola Baic   2:26:33.50  551 NordicSkiRacer.com
29 Vince Liger   Lake Orion, MI2:29:44.30 233911  568 Flying Rhino's Cycling Club
30 Calvin Brown Jr   2:31:17.10  555 Vision Quest
31 Robert Mittelstaedt   2:43:09.40  573 
DNF Jim Courtright   Weston, WI 307570  559 Grand Rapids Bicycle Company
DNF Jim Hartwell     565 
DNF Tom Martin     570 Foster Swift powered by GRBC
DNF Ken Misch   Carmel, IN 251397  572 Flying Rhinos
DNF Michael Walenta   Grand Rapids, MI 217158  585 Rapid Wheelmen
DNF kurt childs     1874 

Men - CAT 4

 Place Points NameCity, StateTime USAC #BibTeam
1 Tyler Gauthier   Ishpeming, MI2:29:42.10 293999  416 Culvers Racing
2 Derek Delzer   Troy, MI2:30:10.30 317058  412 
3 Ryan Tervo   Chassell, MI2:31:28.90 292168  442 
4 Evan Jahn   Chicago, IL2:31:30.60 297483  424 Rhythm Racing
5 Joshua Smith   Erie, CO2:34:02.40 215580  440 TEAM O2
6 Jamie Sanchez   Chicago, IL2:34:04.30 306387  434 Half Acre Cycling
7 Jason Goodin   Portage, MI2:34:05.00 295593  417 CMS Racing
8 Keigo Higaki   Canton, MI2:34:05.20 304287  421 Racing Greyhounds
9 Gregory Garrett   Hudsonville, MI2:34:11.90 57496  415 Rapid Wheelmen
10 Steven Weckle   Midland, MI2:35:50.10 227728  445 Tri City Cyclists
11 Wade Burch   Lansing, MI2:35:54.60 306862  453 
12 Douglas Burcicki   Canton, MI2:36:16.00 228512  404 Team O2
13 Marcus Bush   Minneapoilis, MN2:37:19.30 293091  509 McLain Cycle
14 Charles Rennie   Traverse City, MI2:37:19.30 233940  451 Hagerty
15 Kevin Dittmer   Novi, MI2:37:36.30 279592  413 RACING GREYHOUNDS
16 Todd Simeone   Chicago, IL2:38:17.30 303233  436 Half Acre Cycling
17 Bryan Smith   Rochester, MI2:38:17.40 291597  437 Cadieux/Team o2
18 Terry Collins   West Olive, MI2:40:31.80 257861  410 
19 Andy Fedewa   Clarkston, MI2:40:46.50 262182  414 Flying Rhinos
20 Joseph Yaeger   Lakeland, FL2:41:24.80 292027  446 KBC
21 Steve Pribyl   Maplewood, MN2:41:57.40 297161  433 
22 Clark Menough   Bay City, MI2:42:37.40 329932  456 Tri City Cyclists
23 Jerry Weiss   Bay City, MI2:43:43.90 83173  444 Tri-City Cyclist
24 Raym McLeod   Twin Lake, MI2:43:57.80 309956  429 unattached
25 Mike Okma   Traverse City, MI2:48:57.00 166121  431 Hagerty Racing
26 Sascha Berger   Fenton, MI2:50:05.70 309432  405 digades Racing TEAM
27 Andrew Bowman   Harbor Springs, MI2:50:05.80 265589  406 Team Taint
28 Doug Derdowski   Williamston, MI2:51:24.50 264959  454 
29 Richard Rainville   Livonia, MI2:52:48.40 305239  448 Ann Arbor Velo Club
30 Dale Holsombeck   Canton, MI2:52:48.60 216263  423 AAVC
31 David Bartol   Grand Marais, MN3:03:25.00 192344  402 MBRC/Flanders
DNF Jonathan Ballema   Kalamazoo, MI 279364  401 KBC/CMS Racing
DNF Justin Bassett   Harbor Springs, MI 260133  403 bay tennis and fitness cycling
DNF Terry Bochenek   Jenison, MI 208574  407 Fusion IT/RCV
DNF Don Boersma   Ada, MI 4078  408 Fusion IT (RCV)
DNF Jeff Chapin   Verona, WI 311570  409 Michigan State
DNF Andrew Cowan   Bay City, MI 296448  411 Tri City Cyclist
DNF Dennis Hamel   Comstock Park, MI 276322  419 Rapid Wheelmen
DNF Steven Hetfield   Owosso, MI 255211  420 
DNF Isaiah Jay   Chicago, IL 288101  425 Half Acre Cycling
DNF Justin Joque   Kalamazoo, MI 281878  426 Ann Arbor Velo Club
DNF Patrick Kenny   Chicago, IL 289934  427 Half Acre Cycling
DNF Joel Paquette   Berriensprings, MI 307247  432 Priority Health Cycling team
DNF Tim Schutt   Whitmore Lake, MI 286397  435 Ann Arbor Velo Club
DNF William Sherwood   Royal Oak, MI 230025  439 WOLVERINE / ACFSTORES.COM
DNF Craigan Usher     443 Shower Pass
DNF Matthew Windy   Reese, MI 263676  449 
DNF Sean Fitzpatrick   Chicago, IL 297407  455 Half Acre Cycling

Men - CAT 3

 Place Points NameCity, StateTime USAC #BibTeam
1 Darrell Kohli   Rapid River, MI3:05:22.40 251212  347 Gear Grinder
2 Peter Beels   Seattle, WA3:05:23.40 235743  307 Leadout/Chicago Drive Cycling
3 Daniel Yankus   Milford, MI3:05:23.60 102694  336 Team Giant-MI
4 Collin Snyder   Plymouth, MI3:05:24.30 264396  332 MCG/Trails-Edge
5 Nate Cole   Wyoming, MI3:05:24.60 236397  313 
6 Brian Hofstra   Lake Ann, MI3:05:24.70 280648  319 
7 Trae Bott   Blanchard, MI3:05:24.80 273675  309 SC Racing
8 Ty Schmidt   Traverse City, MI3:05:28.60 196830  330 hagerty
9 Martin Vecchio   Detroit, MI3:05:29.10 289623  333 MCG/Trails-Edge
10 William Slutz   East Canton, OH3:05:31.30 288887  331 Stark Velo
11 Bryan Kuyper   Grand Rapids, MI3:05:36.70 310893  323 Leadout Racing
12 Justin Perry   Grand Haven, MI3:05:38.10 295935  344 
13 Jeremy Woolcock   Kalamazoo, MI3:05:39.70 207563  335 SC Racing
14 anthony prentice   Allendale 3:05:45.30 292144  326 recycling team
15 Brian Cermak   East Grand Rapids, MI3:05:48.10 300177  312 Foster Swift / GRBC
16 Benjamin Cox   Fenton, MI3:05:51.40 258444  342 Team Giant-MI
17 Scott Fabijanski   Royal Oak, MI3:05:54.30 256573  350 Wolverine
18 Andrew Frelitz   Chicago, IL3:06:02.70 227677  316 SC Racing
19 Mark Hotchkin   Grand Rapids Mi3:06:07.80 190321  321 Leadout/Chicago Drive Cycling
20 Rudyard Peterson   Kalamazoo, MI3:06:13.50 215610  325 Priority Health Cycling Team
21 Jason Whittaker   Traverse City, MI3:06:20.30 281144  304 Hagerty Racing
22 Drew Martin   Ada, MI3:06:22.80 292972  338 Foster Swift powered by GRBC
23 Thomas Ralston   Grand Rapids , MI3:06:24.10 204162  352 Bissel/ABG Cycling Team
24 Dale Carley   Alto, MI3:06:40.90 237745  311 Fusion IT
25 Nate Benke   Plymouth, MI3:08:45.70 284145  308 SC Racing
26 Tim Barrons   Traverse City, MI3:13:06.80 154530  300 Hagerty Cycling
27 Joel Gaff Jr   Traversecity, MI3:27:01.30 290372  351 Hagerty Racing
28 Ricardo Cotto   Chicago, IL3:28:30.30 291304  315 WOLVERINE RACING/ACFSTORES.COM
29 Jason Mulawa   Clinton Township, MI3:29:05.40 310681  346 Wolverine
30 Eric Kimber   Grand Rapids, MI3:29:40.90 225461  322 Fusion IT
DNF Scott Howard   Traverse City, MI 264436  301 Hagerty
DNF Will Baker   Harbor Springs, MI 264410  306 BTF Racing
DNF Mark Bush   Lawton, MI 274918  310 SC Racing
DNF Nathan Holloway   Brighton, MI 294316  320 SC Racing
DNF Lucas Oostindie   Middleville, MI 268132  324 ReCycling p/b Accension
DNF Brian Wachlarz   Royal Oak, MI 259572  339 Wolverines
DNF Benjamin Cox   Fenton, MI 258444  343 
DNF Lewis Henrickson   Gowen, MI 309627  349 

Men - PRO/1/2

 Place Points NameCity, StateTime USAC #BibTeam
1 Benjamin Whitehead   Belmont, MI3:32:48.50 183938  37 BISSELL/ABG
2 Daniel Lam   Kalamazoo, MI3:35:03.56 239504  13 Priority Health Cycling Team
3 Derek Graham   Cedar, MI3:36:17.29 102695  BISSELL/ABG
4 Lawrence Warbasse   Traverse City, MI3:36:18.49 215167  BMC Racing Team - USAC
5 Tom Burke   Grand Rapids, MI3:36:24.05 179205  lathrup industries/giant bicycl
6 Nathaniel Williams   Grand Rapids, MI3:36:27.56 220678  20 Bissell/ABG Cycling
7 Adam York   Okemos Mi3:36:29.61 210584  36 MCG/Trails-Edge
8 Thomas Kachelmeyer   Royal Oak, MI3:36:32.34 18395  21 WOLVERINE/ACFSTORES.COM
9 James Ignash   Clawson, MI3:36:32.58 276023  10 Team O2
10 Andrew Otte   West Lafayette, IN3:36:32.89 281578  16 
11 Mike Tacchella   Byron Center, MI3:36:33.47 249598  38 ReCycling p/b Ascension
12 Alex Vanias   Leroy, MI3:36:34.40 291766  19 Priority Health Cycling Team
13 Mac Brennan   East Jordan, MI3:36:37.11 243416  23 Priority Health Cycling Team
14 Tim Finkel   Shelby Twp., MI3:36:38.02 216738  32 Wolverine
15 Geoff Kuyper   Grand Rapids, MI3:36:51.69 266805  12 Leadout/Chicago Dr. Cycling
16 Jason Lowetz (1 - Cat1)   Williamsburg, MI3:36:52.05 129069  Team Bearclaw
17 Christopher Chase   Marquette, MI3:37:00.80 241064  29 Team WM
18 Jason Swiatlowski   Grand Rapids, MI3:38:41.28 34815  22 Bissell ABG Cycling
19 Thomas Behan   Petoskey, MI3:43:06.28 246139  BT & F Cycling
20 Christopher Lynch   Milwaukee, WI3:43:53.00 278183  SISU Cycles
21 James Minnema   Jenison, MI3:45:18.35 258591  35 Bissell ABG Cycling
DNF Benjamin Renkema   Greenville, SC 193086  Global Bike
DNF Andrew Florian   Kalamazoo, MI 198114  11 Priority Health
DNF Paul McMullen   Grand Haven, MI 153647  14 
DNF Jimmy McMurray   Grand Rapids, MI 166307  15 ReCycling p/b Ascension
DNF Eric Forrester   Rockford, MI 149439  24 Bissell ABG Cycling
DNF Jacob Rytlewski   Brownsburg, IN 133501  27 Kenda
DNF Ryan Cross   Boulder, CO 193829  31 Wolverine
DNF Michael Anderson   Alpena, MI 248234  33 

Men - MASTER - 35-44

 Place Points NameCity, StateTime USAC #BibTeam
1 Jason Young   Augusta, MI3:05:44.50 159810  711 East Hills Velo
2 David Baar   Ada, MI3:06:19.80 125256  703 East Hills Velo
3 Rick Snow   Macomb, MI3:06:49.70 56503  732 Team Giant
4 Tom Linck   Ada, MI3:07:11.50 225784  733 Priority Health
5 Andrew Weir   South Ogden, UT3:08:20.40 169810  723 Two Wheel Tango
6 Dan Jansen (1 - Cat2)   Grand Rapids, MI3:08:40.40 132114  736 Farm Team
7 David Fanslow   Ann Arbor, MI3:08:43.80 91272  713 Two Wheel Tango
8 Houston Peterson   Kalamazoo, MI3:09:16.70 48753  707 east hills velo
9 Rich Stark   Ann Arbor, MI3:11:16.00 210510  722 Two Wheel Tango
10 Chris Kushman   Traverse City, MI3:11:22.40 293676  716 Hagerty
11 john meachum   Ada, MI3:12:15.00 299075  720 Priority Health Cycling Team
12 Terry Ritter   Royal Oak, MI3:12:16.60 135609  721 Team Giant - MI
13 Paul Havens   Jenison, MI3:12:17.80 279713  714 Leadout Racing/Chicago Dr. Cycl
14 Scott Diment (1 - Cat3)   Williamsburg, MI3:12:18.40 9537  737 Hagerty Racing
15 Chad Everts   Hudsonville, MI3:14:39.00 220011  705 Leadout Racing/Chicago Dr. Cycl
16 Brian Klym   Traverse City, MI3:22:44.00 314096  715 northwooddentaltc.com
DNF Tim Jenema   Williamsburg, MI 154519  702 Hagerty Cycling
DNF Rodger Bowser   Ann Arbor, MI 244327  704 TWO WHEEL TANGO
DNF Brent Wiersema   Traverse City, MI 244032  709 Hagerty
DNF Casey McGovern   Grand Rapids, MI 296395  719 Bissell abg
DNF Dan Korienek   Grandville, MI 288930  726 Leadout Racing
DNF Randy Rusceak   Howell, MI 210730  730 

Men - MASTER - 45-54

 Place Points NameCity, StateTime USAC #BibTeam
1 Craig Webb   Traverse City2:23:54.80 198629  832 Hagerty Racing
2 Steve Andriese   Traverse City, MI2:25:12.60 209048  800 Hagerty Racing
3 James Bruce   Novi, MI2:25:14.90 46453  819 Lathrup Industries/Giant Bicycl
4 Mark Cahn   W Bloomfield, MI2:25:16.50 45148  820 Cadieux / Team O2
5 Mark Wolowiec   Davisburg, MI2:25:17.70 41215  833 Flying Rhino Cycling Club
6 Mike VanHouten   Grand Rapids, MI2:25:34.80 239548  811 Bissell/ABG
7 Daniel Klein (1 - Cat2)   Berkley, MI2:25:49.00 19336  839 Lathrup Industries/Giant Bicycl
8 David Hietikko   Ada, MI2:25:54.30 16121  826 West Mich Coast Riders
9 Mike Jones   Kalamazoo, MI2:25:54.70 18223  810 PRIORITY HEALTH CYCLING TEAM
10 Francis Bunn   East Grand Rapids, MI2:25:54.80 221576  821 Bissell / ABG
11 Norman Licht   Traverse City, MI2:25:55.40 233939  802 hagerty
12 Michael Dega   Farmington Hills, MI2:25:56.50 264316  843 Cadieux / Team O2
13 Mark Freed   Mount Pleasant, MI2:25:58.30 221861  823 RacerHeads Sports and Leisure
14 Raymond Barbehenn   Ann Arbor, MI2:26:03.40 63608  816 Ann Arbor Velo Club
15 Myles Weitzman   Traverse City, MI2:26:10.20 92876  804 Hagerty Racing
16 Eric Phreed   Lansing, MI2:26:15.20 161040  848 west Michigan Coast Riders
17 Michael Zoeller   Washington, DC2:26:19.10 155245  812 
18 Donald Fedrigon   Williamsburg, MI2:26:20.30 11372  808 Hagerty
19 Jeffrey Haney   Rockford, MI2:26:22.40 273412  824 BISSELL/ABG
20 Terry Bandstra   Spring Lake, MI2:26:50.50 206138  813 west Michigan Coast Riders
21 Todd Fenton   Ortonville, MI2:27:13.10 80801  822 flying rhinos cycling club
22 Christopher Gould (1 - Cat3)   Stanley, VA2:28:46.90 186006  818 WWVC Racing
23 Hal BeVier   Traverse City, MI2:29:53.20 3599  815 Hagerty
24 Daniel Dubes   Rockford, MI2:29:54.20 10066  807 bissell
25 John Sammut   Washington, MI2:31:39.50 31145  846 WOLVERINE/ACFSTORES.COM
26 Fredrick Anderson   Okemos, MI2:40:00.10 1625  801 West Michigan Coast Riders
27 Christopher Bloch   Grand Rapids, MI2:46:43.10 222811  817 
28 Mark Warner   Lansing, MI2:46:43.10 299805  847 
29 Peter Worden   Traversecity, MI2:52:19.90 287446  805 Hagerty Racing
30 Thomas Dell (2 - Cat3)   East China, MI3:01:03.50 277474  806 Team O2/Cadiuex Bicycle Club
DNF Craig Rawlings   Grand Rapids, MI 208778  803 BISSELL/ABG
DNF Douglas Hedges (Cat3)   Royal Oak, MI 249941  825 Wolverines/ACFStores.com
DNF Stephen Smith   Okemos, MI 263308  830 
DNF Tom Mahaney   Marquette, MI 258333  838 
DNF Samuel George   Sparta, MI 46693  845 

Men - MASTER - 55-99

 Place Points NameCity, StateTime USAC #BibTeam
1 Lars Welton   Traverse City, MI1:51:21.20 37712  901 Hagerty Cycling
2 Michael Krywanski   Rockford, MI1:51:22.90 77307  906 PRIORITY HEALTH CYCLING TEAM
3 William Gilboe   Oakland, MI1:51:33.70 13242  905 Essex Brass
4 Clifford Onthank   Traverse City, MI1:52:36.40 26766  908 hagerty
5 Robert Selley   Grand Blanc, MI1:54:14.20 53559  910 CycleFit
6 David Stebbins   Belmont, MI1:54:14.90 137712  912 
7 Dirk Martin   Mcallen, TX1:54:15.80 22655  907 Team McAllen
8 Don Camp   Grand Haven, MI1:54:18.30 5908  914 West MI Coast Riders
9 John Shedlock   Wixom, MI1:54:26.20 61308  909 Wheels in Motion / AAVC
10 Ed Bottrell   Central Lake, MI1:59:30.70 201201  916 
11 Dennis Kershner   Sand Lake, MI2:57.80 171932  915 
12 Loren Simons   Lansing Mi2:04:57.00 47936  911 Priority Health
13 Kenneth Hyde (1 - Cat3)   Valparaiso, IN2:13:59.10 17293  913 

Men - JUNIOR - 10-12

 Place Points NameCity, StateTime USAC #BibTeam
1 Logan Zueger   Marquette, MI34:42.30 312890  256 KMK
2 Luke Mullis   Rochester Hills, MI39:35.50 296792  255 Wolverine Sports Club/ACFstores
3 Ian Durand   Interlochen, MI44:19.40 315750  250 hagerty
4 Keegan Korienek   Grandville, MI48:11.60 314012  253 Leadout Racing
5 Cody Denison   Macomb, MI48:29.30 319730  252 Wolverine
6 Teddy Andriese   1:02:36.70  259 Hagerty

Men - JUNIOR - 15-16

 Place Points NameCity, StateTime USAC #BibTeam
1 Bennett Paul   Saint Ignace, MI1:21:13.30 319178  273 BT&F Racing
2 Dylan Gonda   Portage, MI1:26:08.20 315864  270 
3 David Hartwell   1:34:49.30  277 
4 Martin Zanotti   Holland, MI1:38:46.40 305754  272 Rapid Wheelmen
5 Sam Yancho   1:44:35.30  271 Hagerty
6 Colton Brooks   1:49:59.90  275 

Men - JUNIOR - 17-18

 Place Points NameCity, StateTime USAC #BibTeam
1 Terry Bishop   Stcharles, MI1:26:09.80 291871  280 Tri City Cyclists
DNF Ben Yancho     282 Hagerty

Women - CAT 4

 Place Points NameCity, StateTime USAC #BibTeam
1 bridgett widrig   Interlochen, MI2:07:49.40 306302  617 Hagerty Cycling
2 barb beauregard   Traverse City, MI2:08:10.00 312276  601 Hagerty Cycling
3 Kathryn Jones   Grosse Pointe Park, MI2:12:02.50 282184  623 
4 Jill Gorkowski   Grand Rapids, MI2:16:02.60 314216  608 Fusion IT
5 Zoe Reeves   Grand Rapids, MI2:17:54.20 295290  600 Priority Health
6 Abby Martin   Grand Rapids, MI2:21:38.80 317498  619 Foster Swift powered by GRBC
7 Christina Bennett   Marquette, MI2:21:57.70 288167  602 
8 Kristin Henderson   Grand Rapids, MI2:24:58.30 317492  622 
9 Kate Carolan   Chicago, IL2:24:58.40 304260  603 Half Acre Cycling
10 Kimberly Thomas   Belmont, MI2:24:58.60 300926  615 Fusion IT
11 Kelsey Groenhout   2:25:31.50  618 Real Women Tri
12 fern spence   Traverse City, MI2:26:30.10 316902  614 Hagerty Cycling
13 Erica Chianese   Chicago, IL2:33:36.80 305531  604 Half Acre Cycling
14 Roberta VanHaitsma   Grandville, MI2:37:25.90 321270  616 Real Women Tri
DNF Chelsea Clark   Grand Rapids, MI 309613  605 Grand Rapids Bicycle Company
DNF Sarah Garrett     607 Real Women Tri
DNF Lori Hotchkin   Grand Rapids Mi 333304  610 Real Women Tri
DNF Laura Korienek   Grandville, MI 300609  611 Real Women Tri
DNF Roxane Kruse   Grand Rapids, MI 317514  612 Priority Health Cycling Team

Women - CAT 3

 Place Points NameCity, StateTime USAC #BibTeam
1 Meghan Lapeta   Chicago, IL2:50:05.73 204804  157 Smart Cycling
2 Leslie Gaines   Okemos, MI2:50:12.30 182278  156 Priority Health Cycling Team
3 Amanda Ryan   Farmington, MI2:50:12.74 286220  158 Team Giant of Michigan
4 Emily Flynn   Eagle Lake, MN2:51:37.81 234057  155 Pear Tree Pens/AAVC
5 Lauri Brockmiller   Traverse City, MI2:57:01.08 275925  159 
6 Marci Bultemeier   Traverse City, MI3:14:09.45 275948  150 Hagerty Cycling
DNF Rachel Decker   Traverse City, MI 276047  151 Hagerty Cycling
DNF Michele Howard   Traverse City, MI 263518  152 Hagerty
DNF Amy Jenema   Williamsburg, MI 278968  153 Hagerty Cycling
DNF Katheryn Everts   Hudsonville, MI 307335  154 Real Women Tri/Chicago Dr. Cycl

Women - PRO/1/2

 Place Points NameCity, StateTime USAC #BibTeam
1 Amy Stauffer   Lowell, MI2:39:01.10 151668  103 Priority Health
2 Johanna Schmidt   Traverse City, MI2:39:11.20 236546  101 Hagerty Cycling
3 Mackenzie Woodring   Belmont, MI2:44:37.60 211079  105 Priority Health
4 Tara Jansen (1 - Cat2)   Grand Rapids, MI2:44:42.40 225567  107 Farm Team
5 Christy Keely   Holland Mi2:44:54.80 267467  100 Team Kenda
6 Susan Vigland   Traverse City, MI2:45:40.00 263846  102 Hagerty Cycling
7 Alicia Trevino   Saginaw, MI2:59:43.70 278555  104 MPI--Main Street Racing
DNF Sarah Demerly   Berkley, MI 293788  106 Wolverine

Women - JUNIOR - 10-12

 Place Points NameCity, StateTime USAC #BibTeam
1 Amanda Keller   Lake Orion, MI57:35.30 317068  200 Wolverine Sports Club

Women - JUNIOR - 13-14

 Place Points NameCity, StateTime USAC #BibTeam
1 Katie Hamel   Comstock Park, MI49:59.80 294976  210 Rapid Wheelmen
2 Danielle Mullis   Rochester, MI53:12.70 296790  211 Wolverine Sports Club/ACFstores

Report missing or incorrect license numbers

Volkswagen
Sierra NevadaShimanoBonk BreakerSpyUSACDFOSMOCUORE
UCI USA Cycling is the official governing body for all disciplines of competitive cycling in the United States. The 501c3, membership-based organization aims both to achieve sustained success in international cycling competition and to grow competitive cycling in America while delivering an exceptional customer experience.
View Children's Online Privacy Protection Policy
US Olympic Committee